[[{"header":{"parameterUnit":"m.s-1","parameterCategory":1,"la1":30.2991,"la2":30.254,"lo1":-89.0895,"lo2":-89.0444,"dy":0.0017,"dx":0.0017,"nx":28,"ny":28,"refTime":"2025-05-24T03:00:00:Z","depth":0,"parameterNumber":2,"parameterNumberName":"U-component_of_WINDS"},"data":[0,0,0,0,0,0,0,0,0,0,0,0,0,0,0,0,0,0,0,0,0,0,0,0,0,0,0,0,0,0,0,0,0,0,0,0,0,0,0,0,0,0,0,0,0,0,0,0,0,0,0,0,0,0,0,0,0,0,-0.3923,-0.3923,0,-0.3881,-0.3881,-0.388,-0.3862,-0.3862,-0.3862,-0.3862,-0.3816,-0.3815,-0.3813,0,0,0,0,0,0,0,0,0,0,0,0,0,-0.3985,-0.3984,-0.3923,-0.3923,-0.3922,-0.3881,-0.3881,-0.388,-0.3862,-0.3862,-0.3862,-0.3862,-0.3816,-0.3815,-0.3813,0,0,0,0,0,0,0,0,0,0,0,0,0,-0.3952,-0.3983,-0.3923,-0.3908,-0.3907,-0.3882,-0.3881,-0.388,-0.3862,-0.3862,-0.3862,-0.3862,-0.3817,-0.3815,-0.3813,-0.3799,0,0,-0.3807,-0.3806,0,0,0,0,0,0,0,0,-0.3954,-0.395,-0.3911,-0.3909,-0.3907,-0.3877,-0.3885,-0.3853,-0.3862,-0.3879,-0.3862,-0.3863,-0.3836,-0.3832,-0.3824,-0.3796,-0.3794,-0.3807,-0.3806,-0.3805,-0.3804,0,0,0,0,0,0,0,-0.3956,-0.3951,-0.3907,-0.3911,-0.3908,-0.3903,-0.3898,-0.3879,-0.3857,-0.3877,-0.3876,-0.3872,-0.3835,-0.3826,-0.3823,-0.3794,-0.3807,-0.3805,-0.3804,-0.3803,-0.3752,-0.3752,0,0,0,0,0,0,-0.3961,-0.3953,-0.3908,-0.3905,-0.3931,-0.3902,-0.3896,-0.3887,-0.3857,-0.3853,-0.3871,-0.3871,-0.3829,-0.3825,-0.3821,-0.3802,-0.3805,-0.3803,-0.3802,-0.3752,-0.3752,-0.3751,0,0,0,0,0,0,-0.3963,-0.3957,-0.391,-0.3929,-0.3922,-0.39,-0.389,-0.3886,-0.3877,-0.3853,-0.3849,-0.3867,-0.3829,-0.3824,-0.3805,-0.3801,-0.3802,-0.38,-0.3752,-0.3752,-0.3752,-0.3765,0,0,0,0,0,0,-0.3964,-0.3958,-0.3953,-0.3929,-0.3922,-0.3895,-0.3889,-0.3885,-0.3874,-0.3873,-0.3847,-0.3843,-0.3829,-0.3808,-0.3803,-0.3798,-0.3799,-0.3752,-0.3752,-0.3752,-0.3765,-0.3765,-0.3765,0,0,0,0,0,-0.3967,-0.3958,-0.3953,-0.3947,-0.3915,-0.3895,-0.389,-0.3875,-0.3874,-0.3868,-0.3853,-0.3844,-0.3802,-0.3806,-0.38,-0.3795,-0.3753,-0.3752,-0.3752,-0.3765,-0.3765,-0.3765,0,0,0,0,0,0,-0.398,-0.3954,-0.3949,-0.3932,-0.3916,-0.3892,-0.3884,-0.3876,-0.3859,-0.3858,-0.3839,-0.3834,-0.3816,-0.3803,-0.3808,-0.3779,-0.3776,-0.3775,-0.3788,-0.3788,-0.3789,-0.3792,-0.3797,0,0,0,0,0,-0.3982,-0.3968,-0.3946,-0.3933,-0.3925,-0.3906,-0.3897,-0.3887,-0.3869,-0.3861,-0.3844,-0.3826,-0.3809,-0.3798,-0.3781,-0.3763,-0.3757,-0.3756,-0.3757,-0.3757,-0.3756,-0.3745,-0.3745,-0.375,-0.375,-0.375,0,0,-0.3984,-0.3968,-0.396,-0.3935,-0.3922,-0.3907,-0.39,-0.3885,-0.3874,-0.3859,-0.384,-0.3827,-0.3805,-0.3786,-0.3777,-0.3775,-0.3753,-0.3756,-0.3757,-0.3755,-0.3745,-0.3744,-0.3744,-0.375,-0.375,-0.375,0,0,-0.3981,-0.3967,-0.3955,-0.3942,-0.3922,-0.3909,-0.3906,-0.3884,-0.3875,-0.3856,-0.3844,-0.3829,-0.38,-0.3785,-0.3774,-0.3765,-0.3757,-0.376,-0.3762,-0.3752,-0.3752,-0.3751,-0.3748,-0.3747,-0.3759,-0.3759,-0.3759,0,-0.3985,-0.3964,-0.395,-0.3936,-0.3925,-0.3911,-0.3899,-0.3886,-0.3861,-0.3853,-0.3851,-0.3815,-0.3799,-0.3777,-0.3775,-0.3766,-0.3762,-0.3763,-0.3753,-0.3752,-0.3752,-0.3748,-0.3747,-0.376,-0.376,-0.376,-0.376,0,-0.3971,-0.3957,-0.3949,-0.3927,-0.3915,-0.3902,-0.3884,-0.3874,-0.3865,-0.3852,-0.3833,-0.3814,-0.3792,-0.3786,-0.3777,-0.3763,-0.3762,-0.3757,-0.3754,-0.3752,-0.3749,-0.3747,-0.3761,-0.376,-0.376,-0.376,0,0,-0.3975,-0.3945,-0.3943,-0.3933,-0.391,-0.3897,-0.3883,-0.3864,-0.3855,-0.3838,-0.3825,-0.3801,-0.3796,-0.3783,-0.3772,-0.3763,-0.3758,-0.3759,-0.3758,-0.3759,-0.374,-0.3745,-0.3743,-0.3752,-0.3751,-0.3751,-0.3742,0,-0.3969,-0.3944,-0.3931,-0.3911,-0.3897,-0.3884,-0.3872,-0.3856,-0.3843,-0.3829,-0.3815,-0.3798,-0.3793,-0.3785,-0.3776,-0.376,-0.3753,-0.3761,-0.3739,-0.3738,-0.3745,-0.3742,-0.3746,-0.3738,-0.3741,-0.3741,-0.374,0,-0.3958,-0.3943,-0.3922,-0.3901,-0.3895,-0.3884,-0.3865,-0.3852,-0.3833,-0.3824,-0.381,-0.3799,-0.3783,-0.3781,-0.3758,-0.3763,-0.3753,-0.3744,-0.3743,-0.374,-0.3739,-0.3739,-0.3736,-0.3735,-0.3738,-0.3738,-0.3739,0,-0.3963,-0.3937,-0.3922,-0.3913,-0.3888,-0.3881,-0.3869,-0.3851,-0.384,-0.3823,-0.3816,-0.3796,-0.3786,-0.3771,-0.3754,-0.3755,-0.3733,-0.373,-0.3724,-0.3725,-0.372,-0.3721,-0.3716,-0.3714,-0.3714,-0.3714,-0.3714,0,-0.3957,-0.3945,-0.3924,-0.3914,-0.39,-0.3884,-0.387,-0.3858,-0.3842,-0.3829,-0.3815,-0.3803,-0.3783,-0.3768,-0.3755,-0.3737,-0.3732,-0.3724,-0.3721,-0.3726,-0.3727,-0.3719,-0.3719,-0.3714,-0.3714,-0.3714,-0.3714,0,-0.3961,-0.3946,-0.3928,-0.3906,-0.39,-0.3891,-0.3871,-0.3861,-0.3848,-0.3832,-0.3827,-0.3806,-0.3788,-0.3771,-0.3745,-0.3737,-0.3719,-0.3715,-0.3726,-0.3724,-0.372,-0.3721,-0.371,-0.3707,-0.3707,-0.3707,-0.3707,0,-0.3958,-0.3949,-0.3926,-0.3917,-0.3907,-0.3892,-0.3881,-0.3865,-0.3854,-0.3832,-0.3824,-0.3806,-0.379,-0.3761,-0.3743,-0.3724,-0.3718,-0.3716,-0.3715,-0.372,-0.3718,-0.3719,-0.3718,-0.3716,-0.3716,-0.3716,-0.3716,0,-0.3955,-0.3948,-0.3934,-0.3917,-0.3905,-0.389,-0.3875,-0.3868,-0.3849,-0.3837,-0.3819,-0.3807,-0.3782,-0.3763,-0.3742,-0.3729,-0.3719,-0.3717,-0.3715,-0.3719,-0.3726,-0.3722,-0.3727,-0.3717,-0.3717,-0.3717,-0.3717,-0.3717,-0.3955,-0.3946,-0.3929,-0.3913,-0.3901,-0.3887,-0.3876,-0.3863,-0.3848,-0.3827,-0.3818,-0.38,-0.3781,-0.3752,-0.3739,-0.3724,-0.3721,-0.3718,-0.3717,-0.3717,-0.3718,-0.3729,-0.372,-0.3719,-0.3719,-0.3719,-0.3719,0,-0.3951,-0.394,-0.3926,-0.3906,-0.3893,-0.3886,-0.3869,-0.3859,-0.3844,-0.3827,-0.3812,-0.3791,-0.3773,-0.3754,-0.3734,-0.3725,-0.372,-0.3721,-0.3721,-0.3718,-0.3721,-0.3725,-0.3725,-0.3725,-0.3725,-0.3725,-0.3725,-0.3725,-0.3948,-0.3933,-0.3924,-0.3902,-0.389,-0.3873,-0.3864,-0.3851,-0.3838,-0.3815,-0.3801,-0.3789,-0.3771,-0.375,-0.3733,-0.3727,-0.372,-0.3722,-0.3716,-0.3718,-0.3718,-0.3718,-0.3721,-0.3721,-0.3721,-0.3714,-0.3714,-0.3714]},{"header":{"parameterUnit":"m.s-1","parameterCategory":1,"la1":30.2991,"la2":30.254,"lo1":-89.0895,"lo2":-89.0444,"dy":0.0017,"dx":0.0017,"nx":28,"ny":28,"refTime":"2025-05-24T03:00:00:Z","depth":0,"parameterNumber":3,"parameterNumberName":"V-component_of_WINDS"},"data":[0,0,0,0,0,0,0,0,0,0,0,0,0,0,0,0,0,0,0,0,0,0,0,0,0,0,0,0,0,0,0,0,0,0,0,0,0,0,0,0,0,0,0,0,0,0,0,0,0,0,0,0,0,0,0,0,0,0,1.6214,1.6213,0,1.6151,1.6151,1.615,1.6108,1.6108,1.6108,1.6107,1.6042,1.6041,1.604,0,0,0,0,0,0,0,0,0,0,0,0,0,1.6298,1.6296,1.6214,1.6213,1.6213,1.6151,1.6151,1.615,1.6108,1.6108,1.6108,1.6107,1.6043,1.6041,1.6039,0,0,0,0,0,0,0,0,0,0,0,0,0,1.6251,1.6296,1.6214,1.6185,1.6181,1.6152,1.615,1.6149,1.6108,1.6108,1.6107,1.6107,1.6043,1.6041,1.6039,1.6034,0,0,1.6032,1.6031,0,0,0,0,0,0,0,0,1.6254,1.6248,1.619,1.6187,1.6183,1.6137,1.6156,1.6111,1.6108,1.6136,1.6107,1.6107,1.6074,1.6069,1.6059,1.6031,1.6028,1.6032,1.6031,1.603,1.6029,0,0,0,0,0,0,0,1.6257,1.625,1.6189,1.6189,1.6185,1.6174,1.6167,1.6147,1.6108,1.6134,1.613,1.6124,1.6072,1.6061,1.6057,1.6027,1.6032,1.603,1.6029,1.6028,1.5992,1.5992,0,0,0,0,0,0,1.6265,1.6253,1.6191,1.6187,1.6218,1.6173,1.6165,1.6152,1.6108,1.6101,1.6124,1.6122,1.6065,1.6059,1.6054,1.6045,1.603,1.6028,1.6027,1.5992,1.5992,1.5992,0,0,0,0,0,0,1.6267,1.626,1.6194,1.6219,1.621,1.6172,1.6158,1.6151,1.614,1.6101,1.6094,1.6119,1.6064,1.6057,1.6039,1.6042,1.6027,1.6025,1.5991,1.5992,1.5992,1.6027,0,0,0,0,0,0,1.6269,1.6261,1.6258,1.622,1.6209,1.618,1.6158,1.615,1.6136,1.6133,1.6095,1.6088,1.6063,1.6043,1.6037,1.6039,1.6023,1.5991,1.5991,1.5992,1.6025,1.6028,1.6031,0,0,0,0,0,1.6273,1.627,1.6258,1.6251,1.6205,1.618,1.6174,1.6146,1.6136,1.6134,1.6109,1.6089,1.6043,1.6041,1.6035,1.6036,1.599,1.5991,1.5992,1.6024,1.6028,1.6031,0,0,0,0,0,0,1.631,1.6265,1.6251,1.6236,1.6213,1.6173,1.6169,1.6151,1.6129,1.6126,1.6092,1.6084,1.6069,1.6051,1.605,1.6028,1.6014,1.6014,1.6041,1.6044,1.6047,1.6052,1.6021,0,0,0,0,0,1.6316,1.63,1.6261,1.6252,1.6241,1.6207,1.6195,1.6175,1.6149,1.6139,1.6113,1.6088,1.6068,1.6055,1.6034,1.6023,1.6014,1.602,1.6023,1.6026,1.6026,1.6018,1.6021,1.5995,1.5995,1.5995,0,0,1.6329,1.6303,1.6295,1.6259,1.6238,1.6222,1.6199,1.6182,1.617,1.6136,1.6117,1.6098,1.6068,1.6053,1.6045,1.6037,1.6031,1.6027,1.6029,1.6028,1.6019,1.6022,1.6024,1.5996,1.5996,1.5996,0,0,1.6345,1.6323,1.6313,1.6293,1.6262,1.624,1.6238,1.6201,1.6187,1.6168,1.6142,1.6127,1.6093,1.6073,1.6058,1.6067,1.6048,1.6061,1.6077,1.607,1.6072,1.6074,1.6077,1.6078,1.6062,1.6062,1.6062,0,1.6365,1.634,1.631,1.6295,1.6281,1.625,1.624,1.6221,1.6185,1.6176,1.6167,1.6124,1.6102,1.6082,1.6084,1.6074,1.607,1.6065,1.6074,1.6075,1.6076,1.6079,1.608,1.6063,1.6063,1.6063,1.6063,0,1.6366,1.6349,1.6344,1.6311,1.6295,1.6283,1.6251,1.6239,1.6221,1.62,1.6181,1.6154,1.6127,1.6121,1.6103,1.6098,1.6094,1.6081,1.6066,1.6081,1.6083,1.6084,1.6066,1.6065,1.6065,1.6064,0,0,1.6402,1.6353,1.6352,1.6336,1.63,1.6286,1.6273,1.6247,1.6237,1.6214,1.6201,1.6174,1.6161,1.6144,1.6124,1.6118,1.6127,1.6105,1.6104,1.611,1.612,1.6131,1.6132,1.6115,1.6115,1.6115,1.6123,0,1.6411,1.6385,1.6359,1.6342,1.6326,1.6297,1.6285,1.6262,1.6242,1.6225,1.6203,1.6184,1.6169,1.6158,1.6151,1.6127,1.6129,1.6126,1.6102,1.6102,1.611,1.6133,1.6144,1.6152,1.6123,1.6123,1.6123,0,1.6419,1.6397,1.6379,1.6345,1.6337,1.6327,1.6302,1.6286,1.6259,1.6245,1.6227,1.6206,1.619,1.6178,1.6156,1.6155,1.6144,1.6131,1.613,1.6126,1.6113,1.6129,1.6154,1.6156,1.6124,1.6124,1.6124,0,1.6447,1.6413,1.6398,1.6385,1.6346,1.6339,1.6322,1.6295,1.6282,1.6259,1.625,1.6227,1.6213,1.6196,1.6169,1.6162,1.6149,1.6135,1.6137,1.6138,1.6135,1.6135,1.6158,1.6129,1.6129,1.6129,1.6129,0,1.646,1.645,1.641,1.64,1.6388,1.6358,1.6347,1.6328,1.6304,1.629,1.6264,1.6252,1.6217,1.6201,1.618,1.6164,1.6159,1.6147,1.6141,1.6149,1.615,1.614,1.6139,1.6129,1.6129,1.6129,1.6129,0,1.6488,1.6461,1.6443,1.6407,1.6398,1.6391,1.636,1.635,1.6329,1.6312,1.6306,1.6273,1.6252,1.6224,1.6194,1.618,1.6168,1.6159,1.6177,1.6173,1.6177,1.6177,1.6194,1.6195,1.6166,1.6166,1.6166,0,1.6498,1.649,1.6454,1.6443,1.6427,1.641,1.6396,1.6367,1.6353,1.6323,1.6316,1.6294,1.6274,1.6243,1.6216,1.6193,1.6184,1.6191,1.618,1.6188,1.6183,1.6184,1.6183,1.6194,1.6194,1.6195,1.6195,0,1.6519,1.6506,1.6487,1.6464,1.6449,1.6429,1.6408,1.64,1.6366,1.6353,1.6332,1.6317,1.6287,1.6265,1.6239,1.6221,1.6203,1.6199,1.6198,1.6205,1.6216,1.621,1.6184,1.6198,1.6198,1.6198,1.6197,1.6197,1.6538,1.6529,1.6503,1.6483,1.6464,1.6445,1.6434,1.6412,1.6394,1.6368,1.6352,1.6331,1.6305,1.6268,1.6252,1.6236,1.6228,1.6227,1.6227,1.6227,1.6229,1.6219,1.6231,1.6231,1.6231,1.6231,1.623,0,1.6557,1.6539,1.6521,1.6493,1.6477,1.6461,1.6438,1.6426,1.6408,1.6386,1.6367,1.6343,1.6322,1.6294,1.6271,1.6263,1.6254,1.6258,1.6258,1.6254,1.6238,1.624,1.6266,1.6266,1.6266,1.6266,1.6266,1.6266,1.6565,1.655,1.6534,1.6509,1.6491,1.6471,1.6459,1.6441,1.6423,1.6398,1.638,1.6362,1.6337,1.6312,1.6292,1.6285,1.6277,1.6284,1.6274,1.6259,1.6255,1.6252,1.6255,1.6283,1.6283,1.6292,1.6292,1.6292]}]]